User: anonymous   Login
Location: Colonia Mina de C?rbuni
(46.1667°N, 22.7167°E)
Time: 20:30:10
(UTC+00:00)
Language:

A-11 Canister half - Orbit

View from above orbital plane
View from above orbital plane
View from above satellite
View from above satellite

Ground track
Ground track

The orbit data is extracted from the following two-line orbital elements,

1 00053U 60009E   24102.81111236 -.00000021  00000-0  62274-3 0  9993
2 00053  47.2766 278.7877 0098149 241.3385 117.7507 12.17327437838414
Epoch (UTC): 11 April 2024 19:28:00
Eccentricity: 0.0098149
inclination: 47.2766°
perigee height: 1526 km
apogee height: 1682 km
right ascension of ascending node: 278.7877°
argument of perigee: 241.3385°
revolutions per day: 12.17327437
mean anomaly at epoch: 117.7507°
orbit number at epoch: 83841

The dashed part of the orbit path shows where the satellite is in the earth's shadow,  

DLR